Flag for Ukraine Weather past 2 weeks in Luhansk, Ukraine

45 °F

Quite cool.

Feels Like: 43 °F
Forecast: 32 / 36 °F
Wind: 3 mph from Northeast

Location: Rostov-Na-Donu

Current Time: Nov 25, 2015 at 5:43:10 AM

Latest Report: Nov 25, 2015 at 5:00 AM

Visibility: 0 mi

Pressure: 30.01 "Hg

Humidity: 93%

Dew point: 43 °F

Location of LuhanskLocation

Historic Weather in Luhansk — Graph


Luhansk temperature yesterday

Maximum temperature yesterday: 54 °F (at 12:00 AM)
Minimum temperature yesterday: 46 °F (at 7:30 AM)
Average temperature yesterday: 48 °F

Past Weeks' High & Low Weather Summary

High68 °F (Nov 23, 1:00 PM)100% (Nov 13, 5:00 AM)30.33 "Hg (Nov 13, 5:00 AM)
Low32 °F (Nov 17, 7:00 AM)34% (Nov 23, 11:00 AM)29.42 "Hg (Nov 11, 5:30 AM)
Average46 °F76%29.92 "Hg
* Reported Nov 10 4:00 AM — Nov 25 4:30 AM, Luhansk, Weather by CustomWeather, © 2015

Note: Actual official high and low records may vary slightly from our data, if they occured in-between our weather recording intervals... More about our weather records


Luhansk weather history for previous 24 hours

Time TempWeatherWind HumidityBarometerVisibility
4:30 AM
Wed, Nov 25
43 °FQuite cool.6 mph100%30.01 "Hg0 mi
4:00 AM43 °FQuite cool.13 mph93%30.01 "Hg1 mi
3:30 AM43 °FQuite cool.13 mph100%30.01 "Hg1 mi
2:30 AM45 °FFog.8 mph93%30.04 "Hg2 mi
1:30 AM46 °FCool.8 mph100%30.07 "Hg0 mi
1:00 AM48 °FCool.6 mph94%30.07 "Hg1 mi
12:30 AM48 °FFog.3 mph94%30.07 "Hg1 mi
12:00 AM48 °FFog.3 mph100%30.07 "Hg1 mi
11:30 PM
Tue, Nov 24
48 °FCool.6 mph94%30.07 "Hg0 mi
11:00 PM48 °FCool.8 mph94%30.07 "Hg0 mi
10:30 PM48 °FCool.10 mph94%30.07 "Hg0 mi
10:00 PM48 °FFog.8 mph87%30.09 "Hg1 mi
9:30 PM46 °FFog.10 mph93%30.09 "Hg2 mi
9:00 PM46 °FLow clouds.13 mph87%30.12 "Hg4 mi
8:30 PM46 °FLow clouds.15 mph87%30.12 "Hg4 mi
8:00 PM46 °FLow clouds.13 mph87%30.15 "Hg4 mi
7:30 PM46 °FDrizzle. Low clouds.13 mph87%30.15 "Hg4 mi
7:00 PM46 °FLow clouds.10 mph87%30.18 "HgN/A
6:30 PM46 °FLow clouds.13 mph87%30.18 "Hg5 mi
6:00 PM46 °FLow clouds.10 mph87%30.18 "Hg4 mi
5:30 PM46 °FDrizzle. Fog.10 mph87%30.21 "Hg2 mi
5:00 PM46 °FDrizzle. Fog.10 mph87%30.21 "Hg3 mi
4:30 PM46 °FDrizzle. Fog.10 mph87%30.21 "Hg3 mi
4:00 PM48 °FCloudy.8 mph82%30.24 "Hg4 mi
3:30 PM48 °FCloudy.10 mph82%30.24 "Hg4 mi
3:00 PM48 °FCloudy.8 mph82%30.24 "Hg4 mi
2:30 PM48 °FMostly cloudy.10 mph82%30.27 "Hg4 mi
2:00 PM48 °FOvercast.13 mph82%30.27 "HgN/A
1:30 PM48 °FOvercast.10 mph76%30.27 "HgN/A
1:00 PM46 °FOvercast.8 mph82%30.30 "HgN/A
12:30 PM46 °FOvercast.10 mph82%30.30 "HgN/A
12:00 PM46 °FMostly cloudy.8 mph82%30.30 "HgN/A
11:30 AM46 °FMostly cloudy.10 mph82%30.30 "HgN/A
11:00 AM46 °FMostly cloudy.10 mph82%30.30 "HgN/A
10:30 AM46 °FMostly cloudy.10 mph87%30.33 "Hg4 mi
10:00 AM46 °FPartly sunny.10 mph87%30.33 "Hg5 mi
9:30 AM46 °FPartly sunny.10 mph87%30.30 "Hg4 mi
9:00 AM46 °FPartly sunny.8 mph87%30.30 "Hg5 mi
8:30 AM46 °FPassing clouds.8 mph87%30.30 "Hg4 mi
8:00 AM46 °FPassing clouds.8 mph87%30.30 "Hg4 mi
7:30 AM46 °FPartly cloudy.8 mph87%30.30 "Hg4 mi
6:30 AM48 °FFog.6 mph94%30.27 "Hg3 mi
6:00 AM48 °FFog.8 mph94%30.27 "Hg2 mi
5:30 AM50 °FMostly cloudy.6 mph88%30.27 "Hg4 mi
5:00 AM50 °FSprinkles. Fog.8 mph94%30.27 "Hg3 mi
Weather by CustomWeather, © 2015

See weather overviewHow to use our weather pages